www.pogodaiklimat.ru

Погода и климат >> Архив погоды >> Норвегия >> Флурё аэропорт


ПОГОДА во Флурё аэропорту

  • Прогноз погоды во Флурё аэропорту
  • Монитор погоды во Флурё аэропорту

АРХИВ ПОГОДЫ во Флурё аэропорту

Время (UTC), дата Ветер
(напр.,м/с)
 
Видим.   Явления Облачность Т
(С)
Тd
(С)
f
(%)
Тe
(С)
Тes
(С)
Комфортность P
(гПа)
Po
(гПа)
Тmin
(С)
Tmax
(С)
R
(мм)
R24
(мм)
S
(см)
22 18.06 ЮЗ 3
{7}
н/о н/о +10.4 +7.1 80 +8 +8 1010.2 972.4
23 18.06 Ю 2
{5}
н/о н/о +9.1 +8.0 93 +7 +7 1010.6 972.6
00 19.06 Ю 1
{10}
н/о н/о +8.9 +7.7 92 +8 +8 1010.7 972.7
01 19.06 Ю 1
{3}
н/о н/о +8.7 +8.0 95 +8 +8 1010.7 972.7
02 19.06 штиль 0
{3}
н/о н/о +8.8 +8.1 95 +8 +8 1010.7 972.7
03 19.06 ЮЗ 1
{2}
н/о н/о +9.0 +7.8 92 +8 +8 1010.6 972.6
04 19.06 СВ 1
{2}
н/о н/о +9.3 +8.4 94 +9 +9 1010.4 972.5
05 19.06 Ю 1
{3}
н/о н/о +10.0 +8.1 88 +9 +9 1010.4 972.6
06 19.06 СЗ 2
{5}
н/о н/о +10.3 +7.4 82 +9 +9 1010.5 972.7 +8.6 +11.8
07 19.06 ЮЗ 1
{3}
н/о н/о +10.9 +8.7 86 +11 +11 1010.7 973.0
08 19.06 ЮЗ 1
{3}
н/о н/о +11.5 +8.9 84 +11 +11 1010.8 973.2
09 19.06 З 1
{3}
н/о н/о +12.6 +8.5 76 +13 +13 1010.7 973.2
10 19.06 ЮЗ 1
{3}
н/о н/о +13.9 +8.7 71 +14 +14 1010.5 973.1
11 19.06 Ю 2
{4}
н/о н/о +14.9 +7.7 62 +15 +15 1010.1 972.9
12 19.06 ЮЗ 2
{6}
н/о н/о +15.3 +7.8 61 +15 +15 1009.9 972.7
13 19.06 ЮЗ 3
{6}
н/о н/о +16.3 +6.7 53 +16 +16 1009.4 972.4
14 19.06 Ю 2
{6}
н/о н/о +15.8 +6.5 54 +16 +16 1009.0 971.9
15 19.06 ЮЗ 1
{4}
н/о н/о +17.2 +7.3 52 +18 +18 1008.3 971.4
16 19.06 З 2
{4}
н/о н/о +16.4 +6.3 51 +17 +17 1007.9 971.0
17 19.06 З 3
{5}
н/о н/о +15.4 +9.3 67 +15 +15 1007.8 970.8
18 19.06 З 2
{6}
н/о н/о +14.0 +9.0 72 +14 +14 1007.5 970.3 +10.2 +17.5
19 19.06 З 1
{5}
н/о н/о +13.8 +9.5 75 +14 +14 1007.2 970.0
20 19.06 штиль 0
{2}
н/о н/о +12.8 +9.4 80 +12 +12 1007.2 969.9
21 19.06
{2}
н/о н/о +12.4 +9.1 80 1006.8 969.4
22 19.06 С 2
{3}
н/о н/о +11.9 +9.5 85 +11 +11 1006.2 968.8
23 19.06 С 1
{2}
н/о н/о +11.9 +8.9 82 +12 +12 1005.8 968.4
00 20.06 С 2
{5}
н/о н/о +11.3 +9.1 86 +10 +10 1005.1 967.6
01 20.06
{4}
н/о н/о +11.2 +8.3 82 1004.7 967.2
02 20.06 штиль 0
{2}
н/о н/о +10.9 +8.8 87 +10 +10 1004.6 967.1
03 20.06 СЗ 1
{2}
н/о н/о +10.4 +9.2 92 +10 +10 1004.7 967.2
04 20.06 В 1
{2}
н/о н/о +10.4 +8.5 88 +10 +10 1004.4 966.9
05 20.06 штиль 0
{3}
н/о н/о +11.0 +8.9 87 +10 +10 1004.4 966.9
06 20.06 штиль 0
{4}
н/о н/о +11.4 +9.3 87 +11 +11 1004.1 966.7 +10.2 +14.1
07 20.06 ЮЗ 1
{2}
н/о н/о +11.6 +9.9 89 +11 +11 1004.2 966.8
08 20.06 ЮЗ 1
{2}
н/о н/о +12.0 +10.1 88 +12 +12 1003.9 966.6
11 20.06 З 2
{4}
н/о н/о +11.2 +10.1 93 +10 +10 1004.6 967.1
12 20.06 ЮЗ 1 н/о н/о +11.5 +9.9 90 +11 +11 1004.6 967.2
13 20.06 ЮЗ 1
{3}
н/о н/о +11.5 +10.6 94 +11 +11 1004.5 967.1
14 20.06 ЮЗ 2
{3}
н/о н/о +11.5 +10.7 95 +10 +10 1004.5 967.1
15 20.06 З 2
{4}
н/о н/о +11.1 +10.3 95 +10 +10 1004.7 967.2
16 20.06 З 3
{5}
н/о н/о +10.6 +10.0 96 +8 +8 1004.8 967.3
17 20.06 З 2
{4}
н/о н/о +10.6 +10.1 97 +9 +9 1005.0 967.5
18 20.06 З 2
{5}
н/о н/о +10.6 +10.0 96 +9 +9 1005.2 967.7
19 20.06 штиль 0
{3}
н/о н/о +10.9 +9.3 90 +10 +10 1005.4 967.9
20 20.06 Ю 1
{3}
н/о н/о +10.8 +9.1 89 +10 +10 1005.3 967.8
21 20.06 Ю 1
{3}
н/о н/о +10.3 +9.1 92 +10 +10 1005.4 967.8
22 20.06 ЮЗ 3
{4}
н/о н/о +10.1 +8.7 91 +8 +8 1005.6 968.0
23 20.06 ЮЗ 3
{6}
н/о н/о +9.5 +8.4 93 +7 +7 1006.2 968.4
00 21.06 З 3
{6}
н/о н/о +9.2 +8.3 94 +7 +7 1006.5 968.7
01 21.06 ЮЗ 3
{7}
н/о н/о +8.4 +7.0 91 +6 +6 1007.1 969.2
02 21.06 ЮЗ 2
{5}
н/о н/о +8.4 +6.7 89 +6 +6 1007.5 969.6
03 21.06 ЮЗ 3
{6}
н/о н/о +7.8 +5.6 86 +5 +5 1007.5 969.5
04 21.06 ЮЗ 2
{4}
н/о н/о +8.8 +5.7 81 +7 +7 1007.1 969.2
05 21.06 Ю 1
{5}
н/о н/о +9.2 +5.9 80 +9 +9 1007.1 969.2
06 21.06 ЮЗ 3
{7}
н/о н/о +8.9 +7.4 90 +6 +6 1007.2 969.4 +7.6 +11.1
07 21.06 ЮЗ 2
{7}
н/о н/о +9.4 +7.0 85 +8 +8 1007.7 969.9
08 21.06 Ю 4
{7}
н/о н/о +9.4 +6.7 83 +7 +7 1008.1 970.3
09 21.06 Ю 4
{7}
н/о н/о +10.5 +5.9 73 +8 +8 1008.1 970.4
10 21.06 Ю 7
{10}
н/о н/о +10.9 +6.1 72 +8 +8 1008.1 970.5
11 21.06 З 3
{9}
н/о н/о +10.7 +7.6 81 +9 +9 1008.2 970.5
12 21.06 ЮЗ 4
{10}
н/о н/о +10.9 +6.7 75 +9 +9 1008.5 970.8
13 21.06 Ю 5
{11}
н/о н/о +8.3 +6.4 88 +5 +5 1010.2 972.1
14 21.06 Ю 3
{5}
н/о н/о +8.9 +6.9 87 +6 +6 1010.4 972.4
15 21.06 З 3
{6}
н/о н/о +8.9 +6.9 87 +6 +6 1010.5 972.6
16 21.06 Ю 2
{5}
н/о н/о +8.9 +7.2 89 +7 +7 1010.8 972.8
17 21.06 ЮЗ 2
{6}
н/о н/о +8.3 +6.1 86 +6 +6 1011.2 973.1
18 21.06 ЮЗ 2
{11}
н/о н/о +7.8 +6.3 90 +6 +6 1011.7 973.5 +7.0 +12.6
19 21.06 штиль 0
{4}
н/о н/о +7.8 +6.6 92 +7 +7 1012.3 974.1
20 21.06 Ю 1
{2}
н/о н/о +7.9 +6.5 91 +7 +7 1012.6 974.5
21 21.06 штиль 0
{3}
н/о н/о +7.7 +6.8 94 +7 +7 1013.1 974.9
22 21.06 Ю 1
{3}
н/о н/о +7.7 +6.5 92 +7 +7 1013.4 975.2
23 21.06 З 1
{3}
н/о н/о +7.7 +6.8 94 +7 +7 1013.6 975.4
00 22.06 З 2
{4}
н/о н/о +7.7 +7.0 95 +5 +5 1014.3 976.0
01 22.06 ЮЗ 3
{10}
н/о н/о +7.6 +6.9 95 +5 +5 1014.9 976.6
02 22.06 ЮЗ 2
{5}
н/о н/о +7.4 +6.4 93 +5 +5 1015.6 977.2
03 22.06 ЮЗ 2
{5}
н/о н/о +6.9 +5.9 93 +5 +5 1016.1 977.7
04 22.06 Ю 2
{4}
н/о н/о +6.9 +6.3 96 +4 +4 1016.6 978.1
05 22.06 ЮЗ 2
{5}
н/о н/о +7.2 +6.5 95 +5 +5 1017.0 978.6
06 22.06 ЮЗ 2
{10}
н/о н/о +6.2 +5.5 95 +4 +4 1018.3 979.7 +6.1 +8.0
07 22.06 Ю 2
{3}
н/о н/о +6.4 +5.7 95 +4 +4 1019.0 980.4
08 22.06 ЮВ 2
{3}
н/о н/о +7.9 +6.2 89 +6 +6 1019.1 980.7
09 22.06 ЮЗ 2
{6}
н/о н/о +8.0 +6.5 90 +6 +6 1019.7 981.2
10 22.06 Ю 3
{6}
н/о н/о +8.4 +6.7 89 +6 +6 1020.0 981.6
11 22.06 З 3
{13}
н/о н/о +8.2 +6.3 88 +5 +5 1020.8 982.4
12 22.06 Ю 3
{13}
н/о н/о +8.9 +6.5 85 +6 +6 1020.8 982.4
13 22.06 З 2
{10}
н/о н/о +7.8 +6.3 90 +6 +6 1021.7 983.1
14 22.06 З 3
{6}
н/о н/о +8.6 +7.4 92 +6 +6 1021.9 983.4
15 22.06 ЮЗ 3
{6}
н/о н/о +10.0 +7.4 84 +8 +8 1021.6 983.3
16 22.06 ЮЗ 5
{8}
н/о н/о +11.3 +7.0 75 +9 +9 1021.2 983.2
17 22.06 ЮЗ 3
{8}
н/о н/о +10.3 +6.3 76 +8 +8 1021.4 983.2
18 22.06 З 2
{10}
н/о н/о +9.1 +7.2 88 +7 +7 1021.7 983.3 +6.1 +11.8
19 22.06 ЮЗ 2
{4}
н/о н/о +8.6 +7.2 91 +7 +7 1021.6 983.2
20 22.06 ЮЗ 2
{3}
н/о н/о +8.8 +6.9 88 +7 +7 1021.6 983.2
21 22.06 Ю 3
{5}
н/о н/о +8.7 +6.8 88 +6 +6 1021.5 983.1
22 22.06 Ю 3
{6}
н/о н/о +8.9 +6.5 85 +6 +6 1021.4 983.0
23 22.06 З 4
{7}
н/о н/о +8.3 +7.1 92 +5 +5 1022.0 983.5
00 23.06 ЮЗ 3
{7}
н/о н/о +8.0 +7.1 94 +5 +5 1022.5 983.9
01 23.06 З 3
{6}
н/о н/о +7.5 +6.1 91 +5 +5 1022.9 984.3
02 23.06 ЮЗ 3
{4}
н/о н/о +7.3 +6.7 96 +4 +4 1023.3 984.6
03 23.06 ЮЗ 1
{3}
н/о н/о +7.1 +6.4 95 +6 +6 1023.4 984.7
04 23.06 ЮЗ 2
{4}
н/о н/о +7.2 +6.6 96 +5 +5 1023.3 984.6
05 23.06 ЮЗ 2
{4}
н/о н/о +7.4 +6.8 96 +5 +5 1023.5 984.8
06 23.06 ЮЗ 2
{6}
н/о н/о +7.7 +6.5 92 +6 +6 1023.6 985.0 +7.1 +9.3
07 23.06 ЮЗ 2
{4}
н/о н/о +8.2 +7.0 92 +6 +6 1023.9 985.4
08 23.06 СЗ 2
{3}
н/о н/о +8.5 +7.6 94 +6 +6 1024.3 985.7
09 23.06 Ю 2
{4}
н/о н/о +8.5 +7.8 95 +6 +6 1025.0 986.4
10 23.06 З 2
{4}
н/о н/о +8.7 +7.6 93 +7 +7 1025.6 987.0
11 23.06 ЮЗ 2
{4}
н/о н/о +9.8 +8.4 91 +8 +8 1025.8 987.4
12 23.06 Ю 3
{5}
н/о н/о +10.0 +7.8 86 +8 +8 1026.2 987.8
13 23.06 З 2
{4}
н/о н/о +11.1 +8.2 82 +10 +10 1026.5 988.2
14 23.06 З 2
{3}
н/о н/о +12.4 +7.9 74 +12 +12 1026.5 988.4
15 23.06 З 3
{4}
н/о н/о +13.6 +10.2 80 +12 +12 1026.5 988.5
16 23.06 ЮЗ 2
{6}
н/о н/о +12.0 +8.5 79 +11 +11 1026.7 988.5
17 23.06 СЗ 3
{5}
н/о н/о +12.5 +7.6 72 +11 +11 1026.5 988.4
18 23.06 СЗ 2
{6}
н/о н/о +13.5 +8.2 70 +13 +13 1026.6 988.6 +7.7 +14.0
19 23.06 СЗ 2
{6}
н/о н/о +11.5 +7.6 77 +10 +10 1027.3 989.0
20 23.06 СЗ 3
{4}
н/о н/о +11.4 +7.1 75 +10 +10 1027.7 989.4
21 23.06 С 4
{5}
н/о н/о +9.6 +7.0 84 +7 +7 1028.6 990.1
22 23.06
{5}
н/о н/о +8.9 +6.7 86 1029.0 990.3
23 23.06
{4}
н/о н/о +8.1 +6.4 89 1029.5 990.7
00 24.06
{6}
н/о н/о +8.4 +6.2 86 1029.5 990.7
01 24.06 СВ 2
{3}
н/о н/о +6.7 +5.7 93 +4 +4 1029.7 990.8
02 24.06 С 1
{2}
н/о н/о +7.0 +6.1 94 +6 +6 1029.6 990.6
03 24.06 СВ 2
{3}
н/о н/о +7.9 +6.4 90 +6 +6 1029.1 990.3
04 24.06 С 1
{2}
н/о н/о +8.4 +6.7 89 +8 +8 1028.8 990.1
05 24.06 Ю 1
{3}
н/о н/о +10.4 +7.3 81 +10 +10 1028.5 990.1
06 24.06 Ю 1
{3}
н/о н/о +11.2 +7.9 80 +11 +11 1028.7 990.4 +5.9 +13.5
07 24.06 СВ 3
{4}
н/о н/о +13.0 +6.8 66 +12 +12 1028.1 990.0
08 24.06 В 2
{4}
н/о н/о +14.9 +6.7 58 +15 +15 1027.7 989.9
09 24.06 ЮВ 2
{4}
н/о н/о +16.0 +5.9 51 +16 +16 1027.6 989.9
10 24.06 Ю 1
{4}
н/о н/о +17.4 +5.4 45 +18 +18 1027.4 989.9
11 24.06 ЮВ 1
{3}
н/о н/о +17.8 +3.7 39 +19 +19 1027.2 989.7
12 24.06 З 1
{4}
н/о н/о +19.3 +2.7 33 +21 +21 комфорт 1026.9 989.7
13 24.06 З 3
{5}
н/о н/о +19.7 +6.1 41 +21 +21 комфорт 1027.0 989.8
14 24.06 З 3
{6}
н/о н/о +18.2 +6.4 46 +18 +18 1027.0 989.7
15 24.06 З 3
{5}
н/о н/о +17.0 +7.1 52 +17 +17 1027.1 989.6
16 24.06 З 2
{4}
н/о н/о +16.7 +7.9 56 +17 +17 1026.9 989.3
17 24.06 З 3
{5}
н/о н/о +16.1 +7.6 57 +16 +16 1027.0 989.3
18 24.06 Ю 1
{6}
н/о н/о +15.4 +7.9 61 +16 +16 1027.1 989.4 +11.2 +19.7
19 24.06 ЮЗ 2
{4}
н/о н/о +13.7 +8.8 72 +13 +13 1027.7 989.8
20 24.06 В 2
{2}
н/о н/о +12.5 +10.4 87 +12 +12 1027.6 989.5
21 24.06 С 2
{3}
н/о н/о +12.6 +9.4 81 +12 +12 1027.1 989.0
22 24.06 СВ 2
{3}
н/о н/о +12.4 +9.4 82 +11 +11 1026.8 988.7
23 24.06 В 1
{3}
н/о н/о +12.1 +9.7 85 +12 +12 1026.8 988.6
00 25.06 СВ 1
{4}
н/о н/о +11.6 +10.4 92 +11 +11 1026.5 988.3
01 25.06 СВ 2
{3}
н/о н/о +11.6 +10.4 92 +10 +10 1025.9 987.7
02 25.06 В 2
{4}
н/о н/о +11.5 +10.1 91 +10 +10 1025.5 987.3
03 25.06 В 2
{3}
н/о н/о +11.3 +10.2 93 +10 +10 1024.7 986.5
04 25.06 СВ 2
{5}
н/о н/о +11.3 +10.1 92 +10 +10 1024.2 986.0
05 25.06 СВ 2
{6}
н/о н/о +11.7 +10.0 89 +11 +11 1023.8 985.7
06 25.06 СВ 3
{6}
н/о н/о +12.2 +10.4 89 +11 +11 1023.7 985.6 +11.0 +15.3
07 25.06 штиль 0
{4}
н/о н/о +12.6 +11.2 91 +12 +12 1023.8 985.8
08 25.06 штиль 0
{5}
н/о н/о +13.2 +10.2 82 +13 +13 1023.8 985.9
09 25.06 В 2
{3}
н/о н/о +14.3 +10.3 77 +14 +14 1023.4 985.7
10 25.06 ЮЗ 1
{3}
н/о н/о +15.8 +10.6 71 +17 +17 1022.8 985.3
11 25.06 ЮЗ 1
{3}
н/о н/о +14.7 +11.3 80 +15 +15 1023.0 985.3
12 25.06 ЮЗ 1
{5}
н/о н/о +14.5 +11.5 82 +15 +15 1022.9 985.2
13 25.06 Ю 1
{3}
н/о н/о +14.5 +10.7 78 +15 +15 1022.9 985.2
14 25.06 СВ 1
{2}
н/о н/о +14.0 +11.3 84 +14 +14 1022.9 985.1
15 25.06 ЮВ 1
{3}
н/о н/о +13.3 +11.4 88 +13 +13 1022.9 985.0
16 25.06 С 2
{3}
н/о н/о +13.2 +10.7 85 +12 +12 1022.7 984.8
17 25.06
{3}
н/о н/о +13.3 +10.8 85 1022.7 984.8
18 25.06
{5}
н/о н/о +12.5 +11.1 91 1022.7 984.7 +12.1 +16.3
19 25.06 С 2
{5}
н/о н/о +12.4 +11.1 92 +11 +11 1022.6 984.7
20 25.06 С 1
{3}
н/о н/о +12.5 +10.9 90 +12 +12 1022.7 984.7

 

Местоположение метеостанции Флурё аэропорт (Норвегия): широта 61.39 долгота 5.76 высота над уровнем моря 321 м.

В архиве по умолчанию представлена погода во Флурё аэропорту за последнюю неделю. Архивные данные за месяц целиком и за предыдущие месяцы, начиная с января 2011 года, Вы можете получить, выбрав интересующий диапазон дат из раскрывающегося списка и нажав кнопку "Ввод!".


*Определитесь, кто Вы:
робот инопланетянин человек

Внимание! Время в таблицах - всемирное. Для получения местного времени необходимо прибавить поправку, которая равна 1 ч.

Смотрите также архив погоды в соседних городах и на ближайших метеорологических станциях:

Погода во Флурё (Норвегия) (12 км)
Погода в Фурунесете (Норвегия) (40 км)
Погода в Флоро аэропорту (Норвегия) (44 км)
Погода в Такле (Норвегия) (45 км)
Погода в Сандан аэропорту (Норвегия) (52 км)
Погода в Вангснесе (Норвегия) (53 км)
Погода во Фьерлэнде (Норвегия) (54 км)
Погода в Модалене (Норвегия) (60 км)
Погода на Маяке Ytteroyane (Норвегия) (61 км)
Погода в Стрын-Крокене (Норвегия) (73 км)

Пояснения к столбцам:

Ветер - указаны скорость ветра в м/с - средняя за 10 мин, порывы в срок и между сроками (в фигурных скобках) и направление, откуда дует ветер: С - северный, СВ - северо-восточный, В - восточный, ЮВ - юго-восточный, Ю - южный, ЮЗ - юго-западный, З - западный, СЗ - северо-западный.
Видимость - горизонтальная дальность видимости в метрах или километрах. При видимости от 1 до 10 км при отсутствии осадков обычно наблюдается дымка, при ухудшении видимости до 1 км и менее - туман. В сухую погоду видимость может ухудшаться дымом, пылью или мглою.
Явления - указаны атмосферные явления, наблюдавшиеся в срок или в последний час перед сроком; фигурными скобками обозначены явления, наблюдавшиеся между сроками (за 1-3 часа до срока); квадратными скобками обозначены град или гололедные отложения с указанием их диаметра в мм.
Облачность - указаны через наклонную черту общая и нижняя облачность в баллах и высота нижней границы облаков в метрах; квадратными скобками обозначены формы облаков: Ci - перистые, Cs - перисто-слоистые, Cc - перисто-кучевые, Ac - высококучевые, As - высокослоистые, Sc - слоисто-кучевые, Ns - слоисто-дождевые, Cu - кучевые, Cb - кучево-дождевые. Подробнее классификацию облаков см. в Атласе облаков (PDF).
T - Температура воздуха - температура, измеренная на высоте 2 м над землей.
Td - Температура точки росы - температура, при понижении до которой содержащийся в воздухе водяной пар достигнет насыщения.
f - Относительная влажность воздуха - влажноcть воздуха, измеренная на высоте 2 м над землей.
Te - Эффективная температура - температура, которую ощущает одетый по сезону человек в тени. Характеристика душности погоды. При расчете учитывается влияние влажности воздуха и скорости ветра на теплоощущения человека.
Tes - Эффективная температура на солнце - температура, которую ощущает человек, с поправкой на солнечный нагрев. Характеристика знойности погоды. Зависит от высоты солнца над горизонтом, облачности и скорости ветра. Ночью, в пасмурную погоду, а также при ветре 12 м/с и более поправка равна нулю.
P - Атмосферное давление - приведенное к уровню моря атмосферное давление.
Po - Атмосферное давление - измеренное на уровне метеостанции атмосферное давление.
Tmin - Минимальная температура - минимум температуры воздуха на высоте 2 м над землей.
Tmax - Максимальная температура - максимум температуры воздуха на высоте 2 м над землей.
R - Количество осадков - Количество выпавших осадков за период времени, мм. При наведении курсора мыши на число - период времени, за который выпало указанное количество осадков.
R24 - Количество осадков - Количество выпавших осадков за 24 часа, мм.
S - Снежный покров - Высота снежного покрова, см. При наведении курсора мыши на число - состояние снежного покрова и степень покрытия местности в баллах.